BTK6317 WALL-WIOO

Flight info

Callsign BTK6317
Flight time 1h 14m
Altitude 36000
Route GUGUP DCT ISRID W36 OSRUT
Aircraft A320/M-SDE3FGHIRWY/LB1

Departure

Time 2026-04-21 12:51
Airport Sultan Aji Muhammad Sulaiman Sepinggan International Airport (WALL)

Arrival

Time 2026-04-21 14:06
Airport Supadio International Airport (WIOO)
Time Latitude Longitude Altitude Speed Heading
2026-04-21 12:40 -1.26234 116.90039 21 ft 0 kts 338°
2026-04-21 12:42 -1.26256 116.90048 23 ft 4 kts 338°
2026-04-21 12:42 -1.26280 116.90059 23 ft 4 kts 319°
2026-04-21 12:42 -1.26293 116.90079 22 ft 4 kts 270°
2026-04-21 12:42 -1.26290 116.90095 21 ft 1 kts 245°
2026-04-21 12:43 -1.26289 116.90097 21 ft 0 kts 245°
2026-04-21 12:45 -1.26291 116.90093 21 ft 3 kts 245°
2026-04-21 12:45 -1.26310 116.90060 22 ft 8 kts 226°
2026-04-21 12:45 -1.26373 116.90059 22 ft 10 kts 180°
2026-04-21 12:46 -1.26424 116.89993 22 ft 15 kts 248°
2026-04-21 12:46 -1.26470 116.89882 21 ft 19 kts 247°
2026-04-21 12:46 -1.26528 116.89744 22 ft 24 kts 248°
2026-04-21 12:46 -1.26573 116.89638 21 ft 25 kts 247°
2026-04-21 12:47 -1.26666 116.89417 21 ft 27 kts 247°
2026-04-21 12:47 -1.26711 116.89310 21 ft 23 kts 248°
2026-04-21 12:47 -1.26798 116.89106 23 ft 25 kts 247°
2026-04-21 12:47 -1.26843 116.89000 21 ft 26 kts 247°
2026-04-21 12:48 -1.26914 116.88832 21 ft 25 kts 247°
2026-04-21 12:48 -1.26968 116.88703 21 ft 21 kts 247°
2026-04-21 12:48 -1.27025 116.88566 21 ft 22 kts 247°
2026-04-21 12:48 -1.27084 116.88433 22 ft 18 kts 244°
2026-04-21 12:49 -1.27126 116.88376 21 ft 8 kts 215°
2026-04-21 12:49 -1.27176 116.88365 21 ft 6 kts 172°
2026-04-21 12:49 -1.27212 116.88384 23 ft 6 kts 149°
2026-04-21 12:49 -1.27241 116.88406 22 ft 5 kts 140°
2026-04-21 12:50 -1.27262 116.88436 20 ft 7 kts 101°
2026-04-21 12:50 -1.27249 116.88475 22 ft 0 kts 67°
2026-04-21 12:50 -1.27231 116.88517 22 ft 31 kts 66°
2026-04-21 12:50 -1.27039 116.88967 19 ft 105 kts 67°
2026-04-21 12:51 -1.26675 116.89808 29 ft 159 kts 65°
2026-04-21 12:51 -1.26203 116.90889 469 ft 171 kts 66°
2026-04-21 12:51 -1.25759 116.91976 1190 ft 167 kts 63°
2026-04-21 12:51 -1.25313 116.93044 1819 ft 168 kts 63°
2026-04-21 12:52 -1.24825 116.94187 2092 ft 190 kts 63°
2026-04-21 12:52 -1.24277 116.95471 2460 ft 208 kts 64°
2026-04-21 12:52 -1.23758 116.96834 3161 ft 214 kts 76°
2026-04-21 12:52 -1.23985 116.98320 3826 ft 230 kts 115°
2026-04-21 12:53 -1.25180 116.99504 4298 ft 255 kts 146°
2026-04-21 12:53 -1.26812 117.00278 4840 ft 266 kts 156°
2026-04-21 12:53 -1.28543 117.00895 4982 ft 264 kts 159°
2026-04-21 12:53 -1.30284 117.01475 5058 ft 265 kts 159°
2026-04-21 12:54 -1.32031 117.02085 5813 ft 265 kts 158°
2026-04-21 12:54 -1.33762 117.02729 6633 ft 266 kts 156°
2026-04-21 12:54 -1.35491 117.03409 7388 ft 268 kts 155°
2026-04-21 12:54 -1.37227 117.04118 8157 ft 271 kts 155°
2026-04-21 12:55 -1.38974 117.04846 8913 ft 273 kts 154°
2026-04-21 12:55 -1.40737 117.05587 9699 ft 276 kts 154°
2026-04-21 12:55 -1.42524 117.06327 10353 ft 279 kts 159°
2026-04-21 12:55 -1.44451 117.06555 10999 ft 285 kts 188°
2026-04-21 12:56 -1.46306 117.05799 11450 ft 300 kts 218°
2026-04-21 12:56 -1.47655 117.04131 11637 ft 322 kts 242°
2026-04-21 12:56 -1.48659 117.02044 11778 ft 345 kts 247°
2026-04-21 12:56 -1.49587 116.99754 11946 ft 365 kts 249°
2026-04-21 12:57 -1.50501 116.97350 12413 ft 373 kts 249°
2026-04-21 12:57 -1.51432 116.94922 13042 ft 376 kts 249°
2026-04-21 12:57 -1.52402 116.92473 13603 ft 380 kts 248°
2026-04-21 12:57 -1.53267 116.89968 14079 ft 385 kts 257°
2026-04-21 12:58 -1.53607 116.87303 14617 ft 388 kts 270°
2026-04-21 12:58 -1.53342 116.84638 15201 ft 388 kts 283°
2026-04-21 12:58 -1.52683 116.82012 15724 ft 391 kts 285°
2026-04-21 12:58 -1.52001 116.79367 16209 ft 394 kts 285°
2026-04-21 12:59 -1.51312 116.76701 16721 ft 398 kts 285°
2026-04-21 12:59 -1.50621 116.74018 17196 ft 401 kts 285°
2026-04-21 12:59 -1.49918 116.71292 17661 ft 405 kts 284°
2026-04-21 12:59 -1.49216 116.68562 18189 ft 407 kts 285°
2026-04-21 13:00 -1.48499 116.65816 18575 ft 410 kts 285°
2026-04-21 13:00 -1.47770 116.63061 19019 ft 412 kts 285°
2026-04-21 13:00 -1.47030 116.60293 19434 ft 414 kts 285°
2026-04-21 13:00 -1.46284 116.57502 19794 ft 418 kts 285°
2026-04-21 13:01 -1.45530 116.54686 20215 ft 419 kts 285°
2026-04-21 13:01 -1.44764 116.51880 20645 ft 421 kts 287°
2026-04-21 13:01 -1.43724 116.49131 21033 ft 423 kts 291°
2026-04-21 13:01 -1.42629 116.46397 21408 ft 426 kts 291°
2026-04-21 13:02 -1.41522 116.43633 21787 ft 428 kts 291°
2026-04-21 13:02 -1.40415 116.40868 22154 ft 431 kts 291°
2026-04-21 13:02 -1.38173 116.35268 22872 ft 436 kts 291°
2026-04-21 13:03 -1.37043 116.32450 23223 ft 439 kts 291°
2026-04-21 13:03 -1.35904 116.29608 23557 ft 441 kts 291°
2026-04-21 13:03 -1.34757 116.26748 23853 ft 443 kts 291°
2026-04-21 13:03 -1.33617 116.23877 24165 ft 445 kts 289°
2026-04-21 13:04 -1.32701 116.20924 24458 ft 446 kts 286°
2026-04-21 13:04 -1.31820 116.17950 24764 ft 448 kts 286°
2026-04-21 13:04 -1.30936 116.14964 25052 ft 450 kts 286°
2026-04-21 13:04 -1.30045 116.11960 25343 ft 451 kts 286°
2026-04-21 13:05 -1.29148 116.08951 25620 ft 453 kts 286°
2026-04-21 13:05 -1.28242 116.05921 25905 ft 455 kts 286°
2026-04-21 13:05 -1.27337 116.02888 26176 ft 457 kts 286°
2026-04-21 13:05 -1.26430 115.99837 26452 ft 459 kts 286°
2026-04-21 13:06 -1.25521 115.96776 26728 ft 460 kts 286°
2026-04-21 13:06 -1.24608 115.93704 26995 ft 462 kts 286°
2026-04-21 13:06 -1.23685 115.90607 27254 ft 465 kts 286°
2026-04-21 13:06 -1.22764 115.87511 27510 ft 467 kts 286°
2026-04-21 13:07 -1.21836 115.84395 27768 ft 468 kts 286°
2026-04-21 13:07 -1.20908 115.81276 28022 ft 470 kts 286°
2026-04-21 13:07 -1.19969 115.78125 28271 ft 472 kts 286°
2026-04-21 13:07 -1.19036 115.74990 28512 ft 474 kts 286°
2026-04-21 13:08 -1.18094 115.71818 28747 ft 476 kts 286°
2026-04-21 13:08 -1.17270 115.68624 28985 ft 477 kts 279°
2026-04-21 13:08 -1.16758 115.65342 29192 ft 478 kts 278°
2026-04-21 13:08 -1.16261 115.62050 29424 ft 480 kts 278°
2026-04-21 13:09 -1.15761 115.58741 29624 ft 482 kts 278°
2026-04-21 13:09 -1.15261 115.55418 29838 ft 484 kts 278°
2026-04-21 13:09 -1.14757 115.52088 30040 ft 486 kts 278°
2026-04-21 13:09 -1.14249 115.48745 30282 ft 486 kts 278°
2026-04-21 13:10 -1.13738 115.45413 30571 ft 485 kts 278°
2026-04-21 13:10 -1.13226 115.42096 30865 ft 483 kts 278°
2026-04-21 13:10 -1.12712 115.38771 31160 ft 482 kts 278°
2026-04-21 13:10 -1.12202 115.35459 31446 ft 481 kts 278°
2026-04-21 13:11 -1.11697 115.32158 31745 ft 480 kts 278°
2026-04-21 13:11 -1.11195 115.28862 32034 ft 480 kts 278°
2026-04-21 13:11 -1.10695 115.25582 32319 ft 479 kts 278°
2026-04-21 13:11 -1.10193 115.22287 32620 ft 478 kts 278°
2026-04-21 13:12 -1.09692 115.19011 32920 ft 477 kts 278°
2026-04-21 13:12 -1.09192 115.15741 33223 ft 476 kts 278°
2026-04-21 13:12 -1.08693 115.12480 33519 ft 475 kts 278°
2026-04-21 13:12 -1.08191 115.09218 33839 ft 474 kts 278°
2026-04-21 13:13 -1.07690 115.05967 34112 ft 473 kts 278°
2026-04-21 13:13 -1.07195 115.02725 34382 ft 472 kts 278°
2026-04-21 13:13 -1.06703 114.99495 34632 ft 471 kts 278°
2026-04-21 13:13 -1.06210 114.96258 34862 ft 470 kts 278°
2026-04-21 13:14 -1.05719 114.93038 35114 ft 469 kts 278°
2026-04-21 13:14 -1.05223 114.89806 35363 ft 469 kts 278°
2026-04-21 13:14 -1.04730 114.86597 35605 ft 468 kts 278°
2026-04-21 13:14 -1.04238 114.83396 35807 ft 467 kts 278°
2026-04-21 13:15 -1.02913 114.77051 35868 ft 466 kts 289°
2026-04-21 13:15 -1.00094 114.71235 35884 ft 466 kts 297°
2026-04-21 13:16 -0.97081 114.65503 35887 ft 466 kts 297°
2026-04-21 13:16 -0.94093 114.59802 35875 ft 466 kts 297°
2026-04-21 13:17 -0.91066 114.54036 35872 ft 466 kts 297°
2026-04-21 13:17 -0.88075 114.48342 35874 ft 466 kts 296°
2026-04-21 13:18 -0.86002 114.42261 35871 ft 464 kts 278°
2026-04-21 13:18 -0.85026 114.35847 35866 ft 464 kts 278°
2026-04-21 13:19 -0.84041 114.29515 35865 ft 464 kts 278°
2026-04-21 13:19 -0.83057 114.23141 35883 ft 465 kts 278°
2026-04-21 13:20 -0.82072 114.16751 35877 ft 465 kts 278°
2026-04-21 13:20 -0.81088 114.10363 35880 ft 465 kts 278°
2026-04-21 13:21 -0.80106 114.03976 35879 ft 465 kts 278°
2026-04-21 13:21 -0.79127 113.97597 35877 ft 466 kts 278°
2026-04-21 13:22 -0.78139 113.91189 35876 ft 466 kts 278°
2026-04-21 13:22 -0.77151 113.84796 35877 ft 466 kts 278°
2026-04-21 13:23 -0.76160 113.78402 35881 ft 466 kts 278°
2026-04-21 13:23 -0.75183 113.72004 35887 ft 466 kts 278°
2026-04-21 13:24 -0.74204 113.65594 35881 ft 467 kts 278°
2026-04-21 13:24 -0.73221 113.59190 35893 ft 467 kts 278°
2026-04-21 13:25 -0.72236 113.52770 35892 ft 467 kts 278°
2026-04-21 13:25 -0.71238 113.46352 35896 ft 467 kts 278°
2026-04-21 13:26 -0.70251 113.39952 35897 ft 467 kts 278°
2026-04-21 13:26 -0.69268 113.33537 35907 ft 467 kts 278°
2026-04-21 13:27 -0.68280 113.27115 35915 ft 467 kts 278°
2026-04-21 13:27 -0.67293 113.20707 35915 ft 467 kts 278°
2026-04-21 13:28 -0.66305 113.14292 35908 ft 467 kts 278°
2026-04-21 13:28 -0.65321 113.07895 35910 ft 467 kts 278°
2026-04-21 13:29 -0.64333 113.01485 35909 ft 467 kts 278°
2026-04-21 13:29 -0.63512 112.96152 35906 ft 467 kts 278°
2026-04-21 13:30 -0.62352 112.88662 35913 ft 467 kts 278°
2026-04-21 13:30 -0.61534 112.83328 35907 ft 467 kts 278°
2026-04-21 13:31 -0.60553 112.76912 35914 ft 467 kts 278°
2026-04-21 13:31 -0.59565 112.70505 35907 ft 467 kts 278°
2026-04-21 13:32 -0.58570 112.64097 35903 ft 467 kts 278°
2026-04-21 13:32 -0.57578 112.57685 35909 ft 467 kts 278°
2026-04-21 13:33 -0.56591 112.51259 35913 ft 467 kts 278°
2026-04-21 13:33 -0.55605 112.44852 35896 ft 467 kts 278°
2026-04-21 13:34 -0.54611 112.38437 35897 ft 467 kts 278°
2026-04-21 13:34 -0.53623 112.32035 35892 ft 467 kts 278°
2026-04-21 13:35 -0.52657 112.25620 35894 ft 466 kts 277°
2026-04-21 13:35 -0.51841 112.19184 35900 ft 466 kts 276°
2026-04-21 13:36 -0.51086 112.12752 35896 ft 466 kts 276°
2026-04-21 13:36 -0.50299 112.06327 35898 ft 466 kts 277°
2026-04-21 13:37 -0.49475 111.99897 35883 ft 466 kts 277°
2026-04-21 13:37 -0.48654 111.93469 35884 ft 466 kts 277°
2026-04-21 13:38 -0.47838 111.87056 35891 ft 466 kts 277°
2026-04-21 13:38 -0.47026 111.80627 35887 ft 466 kts 277°
2026-04-21 13:39 -0.46214 111.74219 35894 ft 466 kts 277°
2026-04-21 13:39 -0.45399 111.67783 35887 ft 466 kts 277°
2026-04-21 13:40 -0.44593 111.61359 35891 ft 466 kts 277°
2026-04-21 13:40 -0.43784 111.54946 35889 ft 466 kts 277°
2026-04-21 13:41 -0.42962 111.48525 35888 ft 466 kts 277°
2026-04-21 13:41 -0.42146 111.42113 35884 ft 466 kts 277°
2026-04-21 13:42 -0.41337 111.35695 35889 ft 466 kts 277°
2026-04-21 13:42 -0.40529 111.29272 35888 ft 466 kts 277°
2026-04-21 13:43 -0.39722 111.22843 35901 ft 466 kts 277°
2026-04-21 13:43 -0.38905 111.16429 35895 ft 466 kts 277°
2026-04-21 13:44 -0.38063 111.10015 35912 ft 465 kts 278°
2026-04-21 13:44 -0.36990 111.03642 35491 ft 464 kts 280°
2026-04-21 13:45 -0.36397 111.00468 34802 ft 465 kts 280°
2026-04-21 13:45 -0.35800 110.97295 34061 ft 468 kts 280°
2026-04-21 13:45 -0.35208 110.94092 33257 ft 470 kts 280°
2026-04-21 13:45 -0.34632 110.90878 32167 ft 468 kts 279°
2026-04-21 13:46 -0.34074 110.87677 30799 ft 472 kts 279°
2026-04-21 13:46 -0.33519 110.84447 29795 ft 466 kts 279°
2026-04-21 13:46 -0.32975 110.81275 28703 ft 460 kts 279°
2026-04-21 13:46 -0.32440 110.78153 27703 ft 452 kts 279°
2026-04-21 13:47 -0.31912 110.75091 26710 ft 446 kts 279°
2026-04-21 13:47 -0.31383 110.72054 25779 ft 439 kts 279°
2026-04-21 13:47 -0.30863 110.69075 24866 ft 433 kts 279°
2026-04-21 13:47 -0.30354 110.66172 23984 ft 427 kts 279°
2026-04-21 13:48 -0.29836 110.63236 23032 ft 421 kts 279°
2026-04-21 13:48 -0.29335 110.60402 22070 ft 416 kts 279°
2026-04-21 13:48 -0.28837 110.57586 21161 ft 410 kts 279°
2026-04-21 13:48 -0.28348 110.54808 20342 ft 404 kts 279°
2026-04-21 13:49 -0.27865 110.52044 20055 ft 403 kts 279°
2026-04-21 13:49 -0.27382 110.49283 19825 ft 404 kts 279°
2026-04-21 13:49 -0.26902 110.46526 19593 ft 402 kts 279°
2026-04-21 13:49 -0.26427 110.43781 19370 ft 401 kts 279°
2026-04-21 13:50 -0.25951 110.41031 19137 ft 399 kts 279°
2026-04-21 13:50 -0.25479 110.38305 18904 ft 397 kts 279°
2026-04-21 13:50 -0.25016 110.35636 18477 ft 382 kts 279°
2026-04-21 13:50 -0.24567 110.33062 17950 ft 370 kts 279°
2026-04-21 13:51 -0.24131 110.30567 17461 ft 362 kts 279°
2026-04-21 13:51 -0.23699 110.28102 16979 ft 360 kts 279°
2026-04-21 13:51 -0.23270 110.25652 16493 ft 357 kts 279°
2026-04-21 13:51 -0.22847 110.23220 16026 ft 354 kts 279°
2026-04-21 13:52 -0.22424 110.20798 15550 ft 351 kts 279°
2026-04-21 13:52 -0.22006 110.18405 15088 ft 348 kts 279°
2026-04-21 13:52 -0.21593 110.16038 14631 ft 345 kts 279°
2026-04-21 13:52 -0.21185 110.13687 14172 ft 342 kts 279°
2026-04-21 13:53 -0.20780 110.11355 13705 ft 339 kts 279°
2026-04-21 13:53 -0.20378 110.09049 13214 ft 336 kts 279°
2026-04-21 13:53 -0.19979 110.06753 12747 ft 335 kts 279°
2026-04-21 13:53 -0.19580 110.04461 12275 ft 335 kts 279°
2026-04-21 13:54 -0.19181 110.02166 11791 ft 336 kts 279°
2026-04-21 13:54 -0.18969 109.99851 11310 ft 335 kts 268°
2026-04-21 13:54 -0.19250 109.97546 10849 ft 334 kts 256°
2026-04-21 13:54 -0.19942 109.95355 10502 ft 329 kts 250°
2026-04-21 13:55 -0.20669 109.93236 10394 ft 317 kts 251°
2026-04-21 13:55 -0.21376 109.91162 10272 ft 306 kts 251°
2026-04-21 13:55 -0.22052 109.89174 10073 ft 299 kts 251°
2026-04-21 13:55 -0.22706 109.87252 10012 ft 296 kts 251°
2026-04-21 13:56 -0.23369 109.85299 9798 ft 298 kts 251°
2026-04-21 13:56 -0.24035 109.83338 9392 ft 297 kts 251°
2026-04-21 13:56 -0.24696 109.81390 9023 ft 295 kts 251°
2026-04-21 13:56 -0.25336 109.79453 8667 ft 293 kts 252°
2026-04-21 13:57 -0.25955 109.77527 8348 ft 290 kts 252°
2026-04-21 13:57 -0.26564 109.75612 8046 ft 288 kts 252°
2026-04-21 13:57 -0.27168 109.73712 7745 ft 286 kts 253°
2026-04-21 13:57 -0.27768 109.71818 7445 ft 285 kts 253°
2026-04-21 13:58 -0.28362 109.69937 7150 ft 284 kts 253°
2026-04-21 13:58 -0.28956 109.68064 6846 ft 283 kts 253°
2026-04-21 13:58 -0.29552 109.66194 6557 ft 282 kts 253°
2026-04-21 13:58 -0.30148 109.64341 6262 ft 280 kts 252°
2026-04-21 13:59 -0.30826 109.62515 5947 ft 279 kts 249°
2026-04-21 13:59 -0.31560 109.60730 5649 ft 278 kts 248°
2026-04-21 13:59 -0.32311 109.58958 5344 ft 276 kts 248°
2026-04-21 13:59 -0.33062 109.57189 5044 ft 275 kts 248°
2026-04-21 14:00 -0.33793 109.55453 4750 ft 269 kts 248°
2026-04-21 14:00 -0.34505 109.53745 4445 ft 263 kts 248°
2026-04-21 14:00 -0.35201 109.52072 4168 ft 258 kts 248°
2026-04-21 14:00 -0.35611 109.50390 3892 ft 244 kts 275°
2026-04-21 14:01 -0.35048 109.48878 3631 ft 228 kts 310°
2026-04-21 14:01 -0.33792 109.47993 3366 ft 219 kts 337°
2026-04-21 14:01 -0.32406 109.47439 3090 ft 211 kts 337°
2026-04-21 14:01 -0.31073 109.46904 2871 ft 202 kts 336°
2026-04-21 14:02 -0.30219 109.46559 2732 ft 198 kts 336°
2026-04-21 14:02 -0.28583 109.45897 2480 ft 181 kts 337°
2026-04-21 14:02 -0.27443 109.45436 2292 ft 172 kts 337°
2026-04-21 14:03 -0.25407 109.44608 1952 ft 145 kts 335°
2026-04-21 14:03 -0.24491 109.44233 1755 ft 141 kts 336°
2026-04-21 14:03 -0.23589 109.43865 1568 ft 138 kts 337°
2026-04-21 14:03 -0.22710 109.43506 1382 ft 137 kts 335°
2026-04-21 14:04 -0.21835 109.43149 1204 ft 136 kts 335°
2026-04-21 14:04 -0.20960 109.42791 1026 ft 135 kts 336°
2026-04-21 14:04 -0.20083 109.42433 856 ft 137 kts 337°
2026-04-21 14:04 -0.19199 109.42071 692 ft 138 kts 338°
2026-04-21 14:05 -0.18296 109.41703 495 ft 141 kts 338°
2026-04-21 14:05 -0.17385 109.41319 295 ft 142 kts 338°
2026-04-21 14:05 -0.16471 109.40945 101 ft 145 kts 340°
2026-04-21 14:05 -0.15589 109.40595 30 ft 118 kts 337°
2026-04-21 14:06 -0.14921 109.40323 33 ft 82 kts 338°
2026-04-21 14:06 -0.14699 109.40241 32 ft 5 kts 29°
2026-04-21 14:06 -0.14688 109.40271 32 ft 4 kts 68°
2026-04-21 14:06 -0.14678 109.40296 30 ft 3 kts 69°
2026-04-21 14:07 -0.14669 109.40304 31 ft 1 kts 18°
2026-04-21 14:07 -0.14650 109.40305 32 ft 6 kts 358°
2026-04-21 14:07 -0.14600 109.40290 32 ft 7 kts 11°
2026-04-21 14:07 -0.14582 109.40320 32 ft 0 kts 69°
2026-04-21 14:08 -0.14582 109.40321 32 ft 2 kts 70°
2026-04-21 14:08 -0.14577 109.40334 32 ft 0 kts 70°